This is the latest recevied weather packets stored in our database for station/object WX6HNX-6. If no packets are shown the sender has not sent any weather packets the latest 10 day(s).
| Time | Temp. | Humidity | Pressure | Rain* | Wind** | Luminosity | Snow |
|---|---|---|---|---|---|---|---|
| 1777821307 | 16.11° C | 66% | 1012 hPa | 0 mm | - | - | - |
| 1777821006 | 15.56° C | 65% | 1011.9 hPa | 0 mm | - | - | - |
| 1777820706 | 15° C | 67% | 1011.9 hPa | 0 mm | - | - | - |
| 1777820406 | 15° C | 71% | 1011.8 hPa | 0 mm | - | - | - |
| 1777820107 | 15° C | 72% | 1011.9 hPa | 0 mm | - | - | - |
| 1777819807 | 15° C | 72% | 1011.7 hPa | 0 mm | - | - | - |
| 1777819507 | 15° C | 72% | 1011.6 hPa | 0 mm | - | - | - |
| 1777819206 | 15° C | 71% | 1011.6 hPa | 0 mm | - | - | - |
| 1777818906 | 15° C | 69% | 1011.5 hPa | 0 mm | - | - | - |
| 1777818607 | 14.44° C | 67% | 1011.4 hPa | 0 mm | - | - | - |
| 1777818307 | 14.44° C | 66% | 1011.2 hPa | 0 mm | - | - | - |
| 1777818006 | 13.89° C | 67% | 1011.1 hPa | 0 mm | - | - | - |
| 1777817706 | 13.89° C | 67% | 1011 hPa | 0 mm | - | - | - |
| 1777817406 | 13.89° C | 68% | 1011 hPa | 0 mm | - | - | - |
| 1777817106 | 13.33° C | 68% | 1010.9 hPa | 0 mm | - | - | - |
| 1777816806 | 13.33° C | 68% | 1010.9 hPa | 0 mm | - | - | - |
| 1777816506 | 13.33° C | 69% | 1010.8 hPa | 0 mm | - | - | - |
| 1777816206 | 13.33° C | 69% | 1010.7 hPa | 0 mm | - | - | - |
| 1777815907 | 13.33° C | 70% | 1010.7 hPa | 0 mm | - | - | - |
| 1777815607 | 13.33° C | 70% | 1010.5 hPa | 0 mm | - | - | - |
| 1777815107 | 12.78° C | 71% | 1010.5 hPa | 0 mm | - | - | - |
| 1777814809 | 12.78° C | 71% | 1010.5 hPa | 0 mm | - | - | - |
| 1777814507 | 13.33° C | 71% | 1010.4 hPa | 0 mm | - | - | - |
| 1777814208 | 12.78° C | 72% | 1010.4 hPa | 0 mm | - | - | - |
| 1777813908 | 12.78° C | 73% | 1010.3 hPa | 0 mm | - | - | - |
* Rain latest hour (hover to see other rain measurements)
** Current wind speed in m/s (hover to see current wind gust speed)